Weather History for Volk, WI

Change the Weather History Date:

Friday, June 28, 2013

  Actual Average Record
Temperature  
Mean Temperature 66 °F -  
Max Temperature 75 °F 77 °F 87 °F (2012)
Min Temperature 57 °F 62 °F 45 °F (2007)
Cooling Degree Days 1    
Growing Degree Days 16 (Base 50)    
Moisture  
Dew Point 64 °F    
Average Humidity 89    
Maximum Humidity 100    
Minimum Humidity 65    
Precipitation  
Precipitation 0.77 in - - ()
Sea Level Pressure  
Sea Level Pressure 29.69 in    
Wind  
Wind Speed 9 mph (NW)    
Max Wind Speed 18 mph    
Max Gust Speed 23 mph    
Visibility 8 miles    
Events Fog , Rain , Thunderstorm    
Averages and records for this station are not official NWS values.
T = Trace of Precipitation, MM = Missing Value Source: NWS Daily Summary

Daily Weather History Graph

Daily Weather History Graph

Search for Another Location

Airport:

Trip Planner

Search our weather history database for the weather conditions in past years. The results will help you decide how hot, cold, wet, or windy it might be!

Date:

Astronomy

Jun. 28, 2013 Rise Set
Actual Time 5:20 AM CDT 8:47 PM CDT
Civil Twilight 4:44 AM CDT 9:23 PM CDT
Nautical Twilight 3:57 AM CDT 10:11 PM CDT
Astronomical Twilight 2:57 AM CDT 11:11 PM CDT
Moon No Moon Rise 11:42 AM CDT (6/28)
Length of Visible Light 16h 39m
Length of Day
15h 26m
Waning Gibbous, 66% of the Moon is Illuminated
Jun 28
Waning Gibbous
Jun 29
Last Quarter
Jul 8
New
Jul 15
First Quarter
Jul 22
Full

Hourly Weather History & Observations

Time (CDT) Temp. Dew Point Humidity Pressure Visibility Wind Dir Wind Speed Gust Speed Precip Events Conditions
12:58 AM 60.1 °F 56.7 °F 88% 29.76 in 10.0 mi NW 9.2 mph - N/A   Partly Cloudy
1:58 AM 62.1 °F 57.6 °F 85% 29.75 in 10.0 mi West 3.5 mph - N/A   Scattered Clouds
2:58 AM 60.3 °F 57.0 °F 89% 29.73 in 10.0 mi WNW 4.6 mph - N/A   Clear
3:58 AM 59.7 °F 55.8 °F 87% 29.73 in 10.0 mi WNW 8.1 mph - N/A   Clear
4:58 AM 57.4 °F 54.5 °F 90% 29.73 in 10.0 mi West 10.4 mph - N/A   Clear
5:58 AM 58.1 °F 54.9 °F 89% 29.74 in 10.0 mi WNW 6.9 mph - N/A   Clear
6:58 AM 64.8 °F 57.9 °F 78% 29.73 in 10.0 mi WNW 9.2 mph - N/A   Clear
7:58 AM 69.3 °F 60.1 °F 72% 29.70 in 10.0 mi WNW 10.4 mph 17.3 mph N/A   Clear
8:58 AM 71.6 °F 59.9 °F 66% 29.70 in 10.0 mi NW 18.4 mph 23.0 mph N/A   Clear
9:58 AM 73.4 °F 60.8 °F 65% 29.69 in 10.0 mi WNW 16.1 mph 18.4 mph N/A   Overcast
10:58 AM 69.8 °F 60.8 °F 73% 29.69 in 10.0 mi WNW 9.2 mph - N/A   Overcast
11:09 AM 68.0 °F 60.8 °F 78% 29.70 in 10.0 mi NW 8.1 mph - N/A Rain Light Rain Showers
11:18 AM 69.8 °F 60.8 °F 73% 29.70 in 10.0 mi WNW 5.8 mph - N/A   Mostly Cloudy
11:39 AM 69.8 °F 60.8 °F 73% 29.70 in 10.0 mi WNW 9.2 mph - N/A   Light Drizzle
11:58 AM 68.0 °F 62.6 °F 83% 29.71 in 9.0 mi NW 11.5 mph - N/A Rain Light Rain
12:58 PM 68.0 °F 64.4 °F 88% 29.70 in 2.0 mi WNW 9.2 mph - N/A Rain Heavy Rain
1:00 PM 68.0 °F 64.4 °F 88% 29.70 in 1.0 mi NW 11.5 mph - N/A Rain Heavy Rain
1:05 PM 66.2 °F 64.4 °F 94% 29.70 in 0.8 mi NNW 15.0 mph 20.7 mph N/A Rain Heavy Rain
1:10 PM 64.4 °F 64.4 °F 100% 29.70 in 0.8 mi NW 12.7 mph 20.7 mph N/A Rain Heavy Rain
1:15 PM 64.4 °F 64.4 °F 100% 29.70 in 1.8 mi NW 8.1 mph 20.7 mph N/A Rain Rain
1:20 PM 66.2 °F 66.2 °F 100% 29.70 in 6.0 mi NW 9.2 mph - N/A Rain Light Rain
1:30 PM 68.0 °F 66.2 °F 94% 29.70 in 10.0 mi NW 10.4 mph - N/A   Mostly Cloudy
1:57 PM 69.8 °F 66.2 °F 88% 29.69 in 10.0 mi WNW 11.5 mph - N/A Rain Light Rain
1:58 PM 69.8 °F 66.2 °F 88% 29.69 in 10.0 mi NW 12.7 mph - 0.31 in Rain Light Rain
2:09 PM 69.8 °F 68.0 °F 94% 29.68 in 10.0 mi WNW 10.4 mph - N/A   Scattered Clouds
2:19 PM 69.8 °F 66.2 °F 88% 29.68 in 10.0 mi West 12.7 mph - N/A   Mostly Cloudy
2:24 PM 71.6 °F 66.2 °F 83% 29.68 in 10.0 mi West 10.4 mph - N/A   Scattered Clouds
2:39 PM 71.6 °F 66.2 °F 83% 29.68 in 10.0 mi West 10.4 mph 18.4 mph N/A   Mostly Cloudy
2:49 PM 71.6 °F 66.2 °F 83% 29.67 in 10.0 mi WNW 12.7 mph - N/A   Mostly Cloudy
2:58 PM 71.2 °F 64.8 °F 80% 29.67 in 10.0 mi WNW 11.5 mph 20.7 mph 0.00 in   Mostly Cloudy
3:33 PM 73.4 °F 64.4 °F 73% 29.67 in 10.0 mi WNW 12.7 mph - N/A   Mostly Cloudy
3:38 PM 73.4 °F 66.2 °F 78% 29.66 in 10.0 mi WNW 11.5 mph - N/A   Mostly Cloudy
3:58 PM 75.0 °F 64.9 °F 71% 29.66 in 10.0 mi WNW 15.0 mph 18.4 mph N/A   Scattered Clouds
4:14 PM 73.4 °F 64.4 °F 73% 29.67 in 10.0 mi NNW 13.8 mph - N/A   Scattered Clouds
4:58 PM 74.7 °F 66.0 °F 74% 29.66 in 10.0 mi WNW 10.4 mph - N/A   Scattered Clouds
5:09 PM 73.4 °F 66.2 °F 78% 29.67 in 4.0 mi NW 11.5 mph 17.3 mph N/A Rain Light Rain
5:10 PM 73.4 °F 66.2 °F 78% 29.67 in 3.0 mi NW 12.7 mph 18.4 mph N/A Rain Heavy Rain
5:15 PM 71.6 °F 66.2 °F 83% 29.66 in 2.5 mi North 9.2 mph 18.4 mph N/A Rain Rain
5:20 PM 69.8 °F 66.2 °F 88% 29.67 in 6.0 mi NW 6.9 mph 18.4 mph N/A Rain Light Rain
5:23 PM 69.8 °F 66.2 °F 88% 29.67 in 3.0 mi NW 12.7 mph - N/A Rain Heavy Rain
5:27 PM 68.0 °F 66.2 °F 94% 29.67 in 0.8 mi WNW 11.5 mph 23.0 mph N/A Rain Heavy Rain
5:32 PM 68.0 °F 66.2 °F 94% 29.68 in 0.5 mi NW 11.5 mph 23.0 mph N/A Fog , Rain Heavy Rain
5:36 PM 66.2 °F 66.2 °F 100% 29.68 in 1.0 mi NW 9.2 mph - N/A Rain , Thunderstorm Heavy Thunderstorms and Rain
5:41 PM 66.2 °F 66.2 °F 100% 29.67 in 1.2 mi NNW 9.2 mph 19.6 mph N/A Rain , Thunderstorm Heavy Thunderstorms and Rain
5:46 PM 66.2 °F 66.2 °F 100% 29.68 in 2.5 mi NW 11.5 mph 20.7 mph N/A Rain , Thunderstorm Light Thunderstorms and Rain
5:51 PM 66.2 °F 66.2 °F 100% 29.68 in 7.0 mi NW 8.1 mph 20.7 mph N/A Rain Light Rain
5:58 PM 66.4 °F 65.7 °F 98% 29.69 in 10.0 mi NNW 8.1 mph - 0.44 in Rain Light Rain
6:03 PM 66.2 °F 66.2 °F 100% 29.67 in 10.0 mi NW 5.8 mph - N/A   Light Drizzle
6:04 PM 66.2 °F 66.2 °F 100% 29.67 in 10.0 mi NW 5.8 mph - N/A   Scattered Clouds
6:06 PM 66.2 °F 66.2 °F 100% 29.68 in 10.0 mi NW 6.9 mph - N/A   Light Drizzle
6:19 PM 66.2 °F 66.2 °F 100% 29.68 in 10.0 mi WNW 5.8 mph - N/A Rain Light Rain
6:42 PM 66.2 °F 64.4 °F 94% 29.67 in 10.0 mi NW 8.1 mph - N/A   Partly Cloudy
6:58 PM 66.2 °F 64.8 °F 95% 29.67 in 10.0 mi NW 6.9 mph - 0.01 in   Clear
7:58 PM 66.4 °F 64.4 °F 93% 29.69 in 10.0 mi NW 10.4 mph - N/A   Unknown
8:47 PM 64.4 °F 64.4 °F 100% 29.69 in 10.0 mi WNW 6.9 mph - N/A Rain Light Rain
8:58 PM 64.9 °F 64.9 °F 100% 29.69 in 10.0 mi WNW 5.8 mph - 0.00 in Rain Light Rain
9:03 PM 64.4 °F 64.4 °F 100% 29.69 in 10.0 mi WNW 5.8 mph - N/A   Partly Cloudy
9:06 PM 64.4 °F 64.4 °F 100% 29.69 in 10.0 mi WNW 4.6 mph - N/A   Light Drizzle
9:20 PM 64.4 °F 64.4 °F 100% 29.70 in 10.0 mi WNW 5.8 mph - N/A   Clear
9:50 PM 64.4 °F 64.4 °F 100% 29.70 in 10.0 mi WNW 5.8 mph - N/A   Light Drizzle
9:58 PM 64.8 °F 64.8 °F 100% 29.70 in 10.0 mi WNW 4.6 mph - 0.00 in   Light Drizzle
10:26 PM 64.4 °F 64.4 °F 100% 29.70 in 10.0 mi NW 5.8 mph - N/A   Scattered Clouds
10:51 PM 64.4 °F 64.4 °F 100% 29.70 in 10.0 mi NW 6.9 mph - N/A   Mostly Cloudy
10:56 PM 64.4 °F 64.4 °F 100% 29.70 in 10.0 mi NW 6.9 mph - N/A   Mostly Cloudy
10:58 PM 64.4 °F 64.4 °F 100% 29.70 in 10.0 mi NW 5.8 mph - 0.01 in   Mostly Cloudy
11:55 PM 64.4 °F 64.4 °F 100% 29.70 in 10.0 mi NNW 5.8 mph - N/A   Light Drizzle
11:58 PM 64.4 °F 64.4 °F 100% 29.70 in 10.0 mi NNW 4.6 mph - N/A   Light Drizzle